FW7766 Weather Reports


Display with metric or nautical units.
time (UTC)temp
F
wind
direction
speed
MPH
gust
MPH
rain 1hr
in
rain 24hr
in
rain mn
in
humidity
%
barometer
mb
20260901104101 70 0.0 0.0 0.00 0.00 0.00 92 1019.8
20260901103058 70 0.0 0.0 0.00 0.00 0.00 92 1019.7
20260901102054 70 0.0 0.0 0.00 0.00 0.00 92 1019.7
20260901101053 70 0.0 0.0 0.00 0.00 0.00 91 1019.5
20260901100047 70 0.0 0.0 0.00 0.00 0.00 91 1019.5
20260901095044 70 0.0 0.0 0.00 0.00 0.00 91 1019.4
20260901094040 70 0.0 0.0 0.00 0.00 0.00 91 1019.2
20260901093036 71 0.0 0.0 0.00 0.00 0.00 91 1019.3
20260901092053 71 0.0 0.0 0.00 0.00 0.00 91 1019.3
20260901091029 71 0.0 0.0 0.00 0.00 0.00 90 1019.5
20260901090026 71 0.0 0.0 0.00 0.00 0.00 89 1019.3
20260901085023 71 0.0 0.0 0.00 0.00 0.00 89 1019.3
20260901084019 71 0.0 0.0 0.00 0.00 0.00 89 1019.4
20260901083016 71 0.0 0.0 0.00 0.00 0.00 88 1019.5
20260901082133 71 0.0 0.0 0.00 0.00 0.00 88 1019.6
20260901081109 71 0.0 0.0 0.00 0.00 0.00 87 1019.5
20260901080106 71 0.0 0.0 0.00 0.00 0.00 87 1019.6
20260901075103 71 0.0 0.0 0.00 0.00 0.00 87 1019.6
20260901074119 71 0.0 0.0 0.00 0.00 0.00 86 1019.7
20260901073056 72 0.0 0.0 0.00 0.00 0.00 87 1019.9
20260901072052 71 0.0 0.0 0.00 0.00 0.00 86 1019.8
20260901071109 71 0.0 0.0 0.00 0.00 0.00 85 1019.8
20260901070045 71 0.0 0.0 0.00 0.00 0.00 85 1019.9
20260901065042 72 0.0 0.0 0.00 0.00 0.00 85 1019.9
20260901064038 72 0.0 0.0 0.00 0.00 0.00 83 1019.9
20260901063035 72 0.0 0.0 0.00 0.00 0.00 83 1020.1
20260901062031 72 0.0 0.0 0.00 0.00 0.00 83 1020.1
20260901061028 72 0.0 0.0 0.00 0.00 0.00 80 1020.2
20260901060024 73 0.0 0.0 0.00 0.00 0.00 79 1020.1
20260901055021 73 0.0 0.0 0.00 0.00 0.00 79 1020.1
20260901054017 73 0.0 0.0 0.00 0.00 0.00 78 1020.2
20260901053114 73 0.0 0.0 0.00 0.00 0.00 77 1020.1
20260901052111 73 0.0 0.0 0.00 0.00 0.00 74 1020.4
20260901051107 73 0.0 0.0 0.00 0.00 0.00 71 1020.3
20260901050104 73 0.0 0.0 0.00 0.00 0.00 69 1020.3
20260901045140 73 0.0 0.0 0.00 0.00 0.00 69 1020.2
20260901044057 73 0.0 0.0 0.00 0.00 0.00 69 1020.1
20260901043054 73 0.0 0.0 0.00 0.00 0.00 68 1020.0
20260901042050 73 0.0 0.0 0.00 0.00 0.00 68 1020.1
20260901041047 73 0.0 0.0 0.00 0.00 0.00 67 1020.0
20260901040044 73 0.0 0.0 0.00 0.00 0.00 67 1020.0
20260901035040 74 0.0 0.0 0.00 0.00 0.00 67 1020.0
20260901034117 74 0.0 0.0 0.00 0.00 0.00 67 1019.9
20260901033034 74 0.0 0.0 0.00 0.00 0.00 67 1019.9
20260901032031 74 0.0 0.0 0.00 0.00 0.00 67 1020.0
20260901031047 75 0.0 0.0 0.00 0.00 0.00 67 1020.0
20260901030024 75 0.0 0.0 0.00 0.00 0.00 66 1020.0
20260901025020 75 0.0 0.0 0.00 0.00 0.00 65 1019.9
20260901024017 75 0.0 0.0 0.00 0.00 0.00 65 1019.9
20260901023114 76 0.0 0.0 0.00 0.00 0.00 65 1020.0
20260901022110 76 0.0 0.0 0.00 0.00 0.00 65 1020.1
20260901021107 76 0.0 0.0 0.00 0.00 0.00 65 1019.9
20260901015100 77 0.0 0.0 0.00 0.00 0.00 63 1019.7
20260901014116 77 0.0 0.0 0.00 0.00 0.00 63 1019.7
20260901013053 78 0.0 0.0 0.00 0.00 0.00 62 1019.6
20260901012049 78 0.0 0.0 0.00 0.00 0.00 61 1019.4
20260901011045 78 0.0 0.0 0.00 0.00 0.00 62 1019.4
20260901010042 78 0.0 0.0 0.00 0.00 0.00 60 1019.3
20260901005039 80 0.0 0.0 0.00 0.00 0.00 59 1019.3
20260901004035 80 0.0 0.0 0.00 0.00 0.00 58 1019.1
20260901003031 80 0.0 0.0 0.00 0.00 0.00 58 1019.2
20260901002028 80 0.0 0.0 0.00 0.00 0.00 58 1019.2
20260901001024 81 0.0 0.0 0.00 0.00 0.00 58 1019.1
20260901000021 81 0.0 0.0 0.00 0.00 0.00 58 1019.1
20260831235018 82 0.0 0.0 0.00 0.00 0.00 55 1019.0
20260831234114 83 0.0 0.0 0.00 0.00 0.00 55 1018.8
20260831233111 84 0.0 0.0 0.00 0.00 0.00 52 1018.9
20260831232108 84 0.0 0.0 0.00 0.00 0.00 51 1018.9
20260831231104 85 0.0 0.0 0.00 0.00 0.00 51 1019.0
20260831230101 85 0.0 0.0 0.00 0.00 0.00 49 1019.1
20260831225118 86 0.0 0.0 0.00 0.00 0.00 51 1019.2
20260831224054 86 0.0 0.0 0.00 0.00 0.00 49 1019.1
20260831223051 86 0.0 0.0 0.00 0.00 0.00 49 1018.9
20260831222047 86 0.0 0.0 0.00 0.00 0.00 49 1019.1
20260831221044 87 90 1.0 1.0 0.00 0.00 0.00 48 1019.2
20260831220041 87 90 0.0 1.0 0.00 0.00 0.00 47 1019.2
20260831215037 87 0.0 1.0 0.00 0.00 0.00 47 1019.2
20260831214034 87 90 1.0 2.0 0.00 0.00 0.00 47 1019.2
20260831213051 87 0.0 0.0 0.00 0.00 0.00 46 1019.2
20260831212047 87 0.0 0.0 0.00 0.00 0.00 46 1019.2
20260831211023 87 0.0 0.0 0.00 0.00 0.00 47 1019.3
20260831210019 87 0.0 0.0 0.00 0.00 0.00 47 1019.4
20260831205016 86 90 0.0 1.0 0.00 0.00 0.00 48 1019.5
20260831204113 86 0.0 0.0 0.00 0.00 0.00 48 1019.5
20260831203110 84 0.0 0.0 0.00 0.00 0.00 49 1019.5
20260831202126 84 0.0 0.0 0.00 0.00 0.00 48 1019.5
20260831201103 82 90 0.0 1.0 0.00 0.00 0.00 51 1019.8
20260831200059 81 90 0.0 1.0 0.00 0.00 0.00 57 1019.7
20260831195056 80 90 1.0 2.0 0.00 0.00 0.00 61 1020.0
20260831194113 80 90 1.0 2.0 0.00 0.00 0.00 58 1019.9
20260831193049 81 90 2.0 3.0 0.00 0.00 0.00 57 1019.9
20260831192106 84 90 3.0 4.0 0.00 0.00 0.00 51 1020.2
20260831191042 85 90 3.0 5.0 0.00 0.00 0.00 49 1020.4
20260831190039 86 90 3.0 4.0 0.00 0.00 0.00 48 1020.1
20260831185036 87 90 1.0 3.0 0.00 0.00 0.00 47 1020.2
20260831184032 87 90 0.0 1.0 0.00 0.00 0.00 47 1020.3
20260831183129 89 0.0 1.0 0.00 0.00 0.00 46 1020.3
20260831182025 90 0.0 0.0 0.00 0.00 0.00 47 1020.4
20260831181022 89 270 1.0 2.0 0.00 0.00 0.00 48 1020.5
20260831180018 89 270 0.0 2.0 0.00 0.00 0.00 47 1020.7
20260831175015 89 270 0.0 2.0 0.00 0.00 0.00 46 1020.8
20260831174112 89 270 1.0 2.0 0.00 0.00 0.00 45 1020.8
20260831173128 90 0.0 1.0 0.00 0.00 0.00 47 1021.1
20260831172105 88 113 0.0 3.0 0.00 0.00 0.00 47 1021.0
20260831171100 89 270 1.0 3.0 0.00 0.00 0.00 46 1021.1
20260831170116 88 338 1.0 2.0 0.00 0.00 0.00 47 1021.1
20260831165052 87 30 1.0 2.0 0.00 0.00 0.00 48 1021.1
20260831164049 90 326 1.0 2.0 0.00 0.00 0.00 45 1021.2
20260831163046 90 0.0 0.0 0.00 0.00 0.00 46 1021.3
20260831162103 88 29 1.0 2.0 0.00 0.00 0.00 46 1021.3
20260831161039 88 12 1.0 2.0 0.00 0.00 0.00 47 1021.4
20260831160036 88 0.0 0.0 0.00 0.00 0.00 52 1021.4
20260831155052 85 0 1.0 3.0 0.00 0.00 0.00 53 1021.4
20260831154029 83 90 0.0 2.0 0.00 0.00 0.00 55 1021.6
20260831153025 82 276 1.0 3.0 0.00 0.00 0.00 55 1021.6
20260831152021 81 345 1.0 3.0 0.00 0.00 0.00 57 1021.5
20260831151018 81 0.0 0.0 0.00 0.00 0.00 59 1021.7
20260831150015 80 304 1.0 2.0 0.00 0.00 0.00 59 1021.7
20260831145112 79 0.0 0.0 0.00 0.00 0.00 60 1021.6
20260831144108 79 0.0 1.0 0.00 0.00 0.00 60 1021.7
20260831143124 78 297 0.0 3.0 0.00 0.00 0.00 62 1021.6
20260831142101 77 0 0.0 1.0 0.00 0.00 0.00 62 1021.6
20260831141058 76 0 1.0 2.0 0.00 0.00 0.00 64 1021.6
20260831140054 75 338 1.0 2.0 0.00 0.00 0.00 66 1021.5
20260831135051 74 0.0 0.0 0.00 0.00 0.00 69 1021.5
20260831134047 73 0 1.0 2.0 0.00 0.00 0.00 86 1021.6
20260831133044 72 0.0 0.0 0.00 0.00 0.00 91 1021.6
20260831132040 72 0.0 0.0 0.00 0.00 0.00 94 1021.5
20260831131037 71 0.0 0.0 0.00 0.00 0.00 94 1021.6
20260831130034 70 0.0 0.0 0.00 0.00 0.00 93 1021.7
20260831125050 70 0.0 0.0 0.00 0.00 0.00 92 1021.7
20260831124027 69 0.0 0.0 0.00 0.00 0.00 92 1021.6
20260831123023 69 0.0 0.0 0.00 0.00 0.00 91 1021.7
20260831122020 68 0.0 0.0 0.00 0.00 0.00 90 1021.7
20260831121017 68 0.0 0.0 0.00 0.00 0.00 91 1021.5
20260831120113 68 0.0 0.0 0.00 0.00 0.00 91 1021.5
20260831115110 67 0.0 0.0 0.00 0.00 0.00 89 1021.5
20260831114106 67 0.0 0.0 0.00 0.00 0.00 88 1021.4
20260831113103 67 0.0 0.0 0.00 0.00 0.00 88 1021.5
20260831112059 67 0.0 0.0 0.00 0.00 0.00 87 1021.3
20260831111116 67 0.0 0.0 0.00 0.00 0.00 88 1021.4
20260831110053 67 0.0 0.0 0.00 0.00 0.00 88 1021.3
20260831105049 67 0.0 0.0 0.00 0.00 0.00 88 1021.2